Location: New Plymouth
(39.0670°S, 174.0830°E)
Time: 10:24:16
(UTC+12:00)

STRAND 1 - Visible Passes

Search period start: 19 June 2021 00:00
Search period end: 29 June 2021 00:00
Orbit: 769 x 780 km, 98.4° (Epoch: 18 June)

Date Brightness Start Highest point End Pass type
(mag) Time Alt. Az. Time Alt. Az. Time Alt. Az.
19 Jun ? 06:58:05 10° SE 07:02:40 31° E 07:07:13 10° NNE visible
19 Jun ? 18:12:35 10° NE 18:17:21 39° ESE 18:22:08 10° S visible
19 Jun ? 19:52:35 10° NNW 19:56:38 23° W 20:00:42 10° SW visible
20 Jun ? 06:25:28 10° ESE 06:28:19 15° E 06:31:09 10° NE visible
20 Jun ? 17:39:56 10° ENE 17:43:35 20° ESE 17:47:15 10° SSE visible
20 Jun ? 19:17:24 10° N 19:22:21 49° W 19:27:22 10° SSW visible
21 Jun ? 18:43:08 10° NNE 18:48:16 78° ESE 18:53:27 10° S visible
21 Jun ? 20:26:32 10° WNW 20:28:00 11° W 20:29:28 10° WSW visible
22 Jun ? 06:55:08 10° SE 06:59:38 29° E 07:04:06 10° NNE visible
22 Jun ? 18:09:39 10° NE 18:14:21 37° ESE 18:19:05 10° S visible
22 Jun ? 19:49:25 10° NNW 19:53:34 25° W 19:57:47 10° SW visible
23 Jun ? 06:22:40 10° ESE 06:25:15 14° E 06:27:50 10° ENE visible
23 Jun ? 17:37:06 10° ENE 17:40:36 19° ESE 17:44:06 10° SSE visible
23 Jun ? 19:14:20 10° N 19:19:19 52° W 19:24:23 10° SSW visible
24 Jun ? 18:40:08 10° NNE 18:45:15 74° ESE 18:50:25 10° S visible
24 Jun ? 20:23:00 10° WNW 20:24:56 12° W 20:26:52 10° WSW visible
25 Jun ? 06:52:11 10° SE 06:56:36 28° E 07:00:57 10° NNE visible
25 Jun ? 18:06:43 10° NE 18:11:20 35° ESE 18:16:00 10° S visible
25 Jun ? 19:46:16 10° NNW 19:50:32 26° W 19:54:50 10° SW visible
26 Jun ? 06:19:55 10° ESE 06:22:12 13° E 06:24:28 10° ENE visible
26 Jun ? 17:34:17 10° ENE 17:37:36 18° ESE 17:40:58 10° SSE visible
26 Jun ? 19:11:16 10° N 19:16:17 56° W 19:21:23 10° SSW visible
27 Jun ? 18:37:09 10° NNE 18:42:14 69° ESE 18:47:23 10° S visible
27 Jun ? 20:19:35 10° WNW 20:21:53 13° W 20:24:11 10° WSW visible
28 Jun ? 06:49:14 10° SE 06:53:33 26° E 06:57:49 10° NNE visible
28 Jun ? 18:03:48 10° NE 18:08:20 33° ESE 18:12:55 10° S visible
28 Jun ? 19:43:07 10° NNW 19:47:29 28° W 19:51:54 10° SW visible
